Regional Weather Roundup
Issued by NWS

Home | Current Version | Previous Version | Graphics & Text | Print | Product List | Glossary On
Versions: 1 2 3 4 5 6 7 8 9 10 11 12 13 14 15 16 17 18 19 20 21 22 23 24 25 26 27 28 29 30 31 32 33 34 35 36 37 38 39 40 41 42 43 44 45 46 47 48 49 50
107
ASUS43 KLMK 250010
RWRKY
NATIONAL WEATHER SERVICE LOUISVILLE KY
700 PM EST FRI NOV 24 2017

NOTE "FAIR" INDICATES FEW OR NO CLOUDS BELOW 12,000 FEET
WITH NO SIGNIFICANT WEATHER AND/OR OBSTRUCTIONS TO VISIBILITY.

KYZ001>023-026-027-061>063-070>075-250100-
WESTERN AND SOUTH CENTRAL KENTUCKY

CITY           SKY/WX    TMP DP  RH WIND       PRES   REMARKS
PADUCAH        CLEAR     56  32  40 S3        29.81R
HENDERSON      CLEAR     53  34  48 S9        29.79S
OWENSBORO      CLEAR     49  32  52 S9        29.81S
HOPKINSVILLE   CLEAR     55  25  31 S8        29.85R
BOWLING GREEN  CLEAR     51  28  41 S7        29.87R
GLASGOW        CLEAR     49  26  40 CALM      29.87S
$$

KYZ024-025-028>034-038-045-046-053-250100-
NORTH CENTRAL KENTUCKY

CITY           SKY/WX    TMP DP  RH WIND       PRES   REMARKS
LOUISVILLE/SDF MOCLDY    55  26  32 S8        29.82S
LOUISVILLE/LOU PTCLDY    51  28  41 S6        29.83S
FORT KNOX      CLOUDY    49  26  41 S6        29.82R
$$

KYZ035>037-039>044-047>052-055>060-089>105-250100-
NORTHEAST KENTUCKY

CITY           SKY/WX    TMP DP  RH WIND       PRES   REMARKS
LEXINGTON      PTCLDY    49  25  39 S8        29.85S
COVINGTON      PTCLDY    47  30  51 S10       29.80S
FRANKFORT      PTCLDY    50  25  37 S6        29.83S
$$

KYZ054-064>069-076>088-106>120-250100-
SOUTHEAST KENTUCKY

CITY           SKY/WX    TMP DP  RH WIND       PRES   REMARKS
JACKSON        CLEAR     53  26  35 S3        29.87S
LONDON         PTCLDY    50  33  52 CALM      29.88R
SOMERSET       PTCLDY    46  32  57 CALM      29.89S
MIDDLESBORO    CLEAR     44  37  76 CALM      29.92S
MONTICELLO     PTCLDY    41  33  73 NE10      29.90R
$$





USA.gov is the U.S. government's official web portal to all federal, state and local government web resources and services.